Regional Weather Roundup
Issued by NWS

Home | Current Version | Previous Version | Graphics & Text | Print | Product List | Glossary On
Versions: 1 2 3 4 5 6 7 8 9 10 11 12 13 14 15 16 17 18 19 20 21 22 23 24 25 26 27 28 29 30 31 32 33 34 35 36 37 38 39 40 41 42 43 44 45 46 47 48 49 50
000
ASUS43 KDMX 031507
RWRIA

WEATHER ROUNDUP FOR IOWA
NATIONAL WEATHER SERVICE DES MOINES IA
1000 AM CDT WED JUN 03 2015

NOTE: "FAIR" INDICATES FEW OR NO CLOUDS BELOW 12,000 FEET WITH NO
SIGNIFICANT WEATHER AND/OR OBSTRUCTIONS TO VISIBILITY.

* - THESE STATIONS ARE NOT NWS STATIONS...THUS NOT UNDER NWS
QUALITY CONTROL.  THEY ALSO DO NOT REPORT WEATHER SUCH
AS PRECIPITATION OR FOG.

IAZ001>003-012>014-020>022-031>034-043>046-031600-
   NORTHWEST IOWA

CITY           SKY/WX    TMP DP  RH WIND       PRES   REMARKS
CARROLL *      CLOUDY    68  63  83 S14       29.87F
CHEROKEE *     CLOUDY    70  63  78 SW7       29.83R
DENISON *      MOSUNNY   66  66 100 SW5       29.85R
LE MARS *      CLOUDY    70  63  78 NW14      29.84R
ORANGE CITY *  PTSUNNY   66  61  82 W14       29.84S
SHELDON *      CLOUDY    66  66 100 W17       29.82S
SIOUX CITY     PTSUNNY   72  62  71 W8        29.82S
SPENCER        CLOUDY    68  63  84 SW12      29.83F
STORM LAKE *   PTSUNNY   66  61  82 S14       29.86S
$$

IAZ055>058-069>071-079>083-090>094-031600-
   SOUTHWEST IOWA

CITY           SKY/WX    TMP DP  RH WIND       PRES   REMARKS
ATLANTIC *     CLOUDY    68  64  88 S16       29.89F
AUDUBON *      SUNNY     66  63  88 S12G17    29.89F
CLARINDA *     LGT RAIN  64  64 100 SW7G15    29.98R
COUNCIL BLFS * CLOUDY    64  64 100 SE17G28   29.76F
CRESTON *      MOSUNNY   63  63 100 SE15      29.90F
HARLAN  *      PTSUNNY   66  66 100 S14G22    29.86F
LAMONI         LGT RAIN  63  59  87 S8        29.97F FOG
RED OAK *      LGT RAIN  64  64 100 SE10      29.90F
SHENANDOAH *   LGT RAIN  64  64 100 SE15G23   29.90F
$$

IAZ047>049-059>061-072>074-084-031600-
   CENTRAL IOWA

CITY           SKY/WX    TMP DP  RH WIND       PRES   REMARKS
AMES           CLOUDY    64  60  87 S7        29.88F
ANKENY *       SUNNY     63  63 100 S12G18    29.88F
CHARITON *     LGT RAIN  61  61 100 S9        29.93F
DES MOINES     CLOUDY    64  61  90 S10       29.89F
GRINNELL*      CLOUDY    63  59  88 SE15      29.93F
KNOXVILLE *    CLOUDY    61  59  94 S9        29.92F FOG
MARSHALLTOWN   CLOUDY    67  58  72 S23G30    29.89F
PELLA *        CLOUDY    63  63 100 S9        29.94F
PERRY *          N/A     64  61  88 SW8       29.91R
$$

IAZ004>006-015-016-023>025-035-036-031600-
   NORTH CENTRAL IOWA

CITY           SKY/WX    TMP DP  RH WIND       PRES   REMARKS
ALGONA *       CLOUDY    64  61  88 S21       29.85F
CLARION *      PTSUNNY   64  61  88 S18G24    29.87F
ESTHERVILLE    CLOUDY    63  59  87 S18G24    29.83F
FORT DODGE *   CLOUDY    66  59  77 S16G24    29.88F
MASON CITY     CLOUDY    64  58  80 S20G25    29.89R
FOREST CITY *  RAIN      59  59 100 S18G25    29.87R
IOWA FALLS *     N/A     64  59  82 SE18      29.88F
$$

IAZ007>011-017>019-026>030-037>042-050>054-066-031600-
   NORTHEAST IOWA

CITY           SKY/WX    TMP DP  RH WIND       PRES   REMARKS
CEDAR RAPIDS   CLOUDY    68  60  75 S13       29.98F
CHARLES CITY * SUNNY     68  59  73 SE24      29.89F
CLINTON *      MOSUNNY   70  57  64 S16G22    30.04S
DECORAH *      MOSUNNY   66  57  72 S15       29.95F
DUBUQUE        MOSUNNY   69  58  67 S13       30.01S
MONTICELLO *   MOSUNNY   70  59  68 S16       30.00S
OELWEIN *      MOSUNNY   66  57  72 S21       29.96F
WATERLOO       CLOUDY    67  58  72 SE16G25   29.91F
$$

IAZ064-065-067-068-078-031600-
   EAST CENTRAL IOWA

CITY           SKY/WX    TMP DP  RH WIND       PRES   REMARKS
DAVENPORT      MOSUNNY   70  57  63 S17       30.02S
IOWA CITY      CLOUDY    69  59  70 S12G18    30.00F
MT. PLEASANT * PTSUNNY   68  57  68 S12       30.00F
MUSCATINE *    MOSUNNY   70  57  64 S13G21    30.01S
QUAD CITIES    SUNNY     70  57  63 SE13      30.01S
$$

IAZ062-063-075>077-085>089-095>099-031600-
   SOUTHEAST IOWA

CITY           SKY/WX    TMP DP  RH WIND       PRES   REMARKS
BURLINGTON     MOSUNNY   69  59  70 S12       30.01S
FAIRFIELD *    PTSUNNY   66  57  72 S12       29.99F
FORT MADISON *   N/A     66  61  82 SE9       30.01F
KEOKUK *       SUNNY     68  61  77 SE8       30.00F
OSKALOOSA *      N/A     66  57  72 S12       29.96F
CENTERVILLE *  LGT RAIN  59  59 100 SE7       29.99F
OTTUMWA        CLOUDY    64  59  83 SE13      29.95F
WASHINGTON *   PTSUNNY   68  57  68 S10       30.00F
$$

ABBREVIATIONS USED IN REMARKS
   TC - TEMPERATURES IN CELSIUS
  WCI - WIND CHILL INDEX
   HX - HEAT INDEX
  VSB - VISIBILITY
$$




USA.gov is the U.S. government's official web portal to all federal, state and local government web resources and services.